[[{"header":{"parameterUnit":"m.s-1","parameterCategory":1,"la1":30.2991,"la2":30.254,"lo1":-89.0895,"lo2":-89.0444,"dy":0.0017,"dx":0.0017,"nx":28,"ny":28,"refTime":"2025-06-05T09:00:00:Z","depth":0,"parameterNumber":2,"parameterNumberName":"U-component_of_WINDS"},"data":[0,0,0,0,0,0,0,0,0,0,0,0,0,0,0,0,0,0,0,0,0,0,0,0,0,0,0,0,0,0,0,0,0,0,0,0,0,0,0,0,0,0,0,0,0,0,0,0,0,0,0,0,0,0,0,0,0,0,2.8989,2.8991,0,2.9127,2.9128,2.913,2.9067,2.9063,2.906,2.9056,2.9204,2.9211,2.9218,0,0,0,0,0,0,0,0,0,0,0,0,0,2.8679,2.8685,2.8989,2.8991,2.8992,2.9126,2.9128,2.913,2.9067,2.9063,2.9059,2.9055,2.9201,2.921,2.9218,0,0,0,0,0,0,0,0,0,0,0,0,0,2.8815,2.8686,2.8989,2.8977,2.8977,2.9126,2.9128,2.9131,2.9068,2.9063,2.9058,2.9053,2.9199,2.9209,2.922,2.939,0,0,2.9252,2.9257,0,0,0,0,0,0,0,0,2.8807,2.8826,2.8977,2.8978,2.8979,2.9074,2.9073,2.9218,2.9069,2.9034,2.9056,2.905,2.9165,2.9178,2.9216,2.9397,2.9403,2.9253,2.926,2.9264,2.9267,0,0,0,0,0,0,0,2.8798,2.882,2.9044,2.8979,2.898,2.8967,2.8981,2.91,2.9127,2.9037,2.9032,2.9049,2.9165,2.9206,2.9219,2.9405,2.9253,2.9262,2.9269,2.9273,2.9735,2.974,0,0,0,0,0,0,2.8788,2.8812,2.9039,2.9048,2.8878,2.8977,2.8992,2.9049,2.9126,2.9132,2.9053,2.9046,2.919,2.9206,2.9224,2.9429,2.9264,2.9274,2.928,2.9729,2.9736,2.9742,0,0,0,0,0,0,2.8781,2.8808,2.9034,2.8929,2.8957,2.8988,2.9052,2.9054,2.9095,2.9138,2.9143,2.909,2.9186,2.9209,2.9349,2.9433,2.9279,2.9289,2.9722,2.9731,2.9739,2.984,0,0,0,0,0,0,2.8773,2.8806,2.887,2.8931,2.8962,2.9155,2.9057,2.9061,2.9113,2.9104,2.9174,2.918,2.9184,2.9333,2.936,2.9445,2.9297,2.9715,2.9726,2.9737,2.983,2.9852,2.987,0,0,0,0,0,2.8762,2.8894,2.8873,2.8901,2.9042,2.916,2.9178,2.9178,2.912,2.9185,2.9213,2.9178,2.942,2.9348,2.9377,2.9467,2.971,2.9723,2.9736,2.9821,2.9847,2.987,0,0,0,0,0,0,2.8843,2.8901,2.8879,2.9034,2.9092,2.9149,2.923,2.9206,2.9283,2.9271,2.927,2.9286,2.9432,2.9464,2.9383,2.9637,2.9556,2.9576,2.9611,2.9636,2.9656,2.9646,2.9306,0,0,0,0,0,2.8879,2.8967,2.9014,2.9147,2.9177,2.9199,2.925,2.9245,2.9306,2.9331,2.9369,2.9431,2.9521,2.9581,2.9666,2.9834,2.985,2.9911,2.9931,2.9948,2.9965,3.0058,3.0086,2.9786,2.9785,2.9785,0,0,2.8954,2.8997,2.9053,2.9165,2.9209,2.9303,2.922,2.9323,2.9394,2.9347,2.9481,2.9512,2.9582,2.9737,2.9808,2.9768,3.0051,2.9964,2.9977,2.9985,3.0074,3.0103,3.0128,2.9794,2.9793,2.9791,0,0,2.9139,2.918,2.9295,2.9341,2.9409,2.9423,2.9451,2.9512,2.953,2.9664,2.9632,2.9717,2.9872,2.9923,2.9969,3.0176,3.0148,3.0204,3.031,3.0401,3.0425,3.0446,3.0521,3.0548,3.0221,3.0221,3.0222,0,2.9224,2.9363,2.9358,2.9464,2.9515,2.9476,2.9594,2.964,2.9733,2.977,2.9724,2.9918,2.9962,3.013,3.0181,3.0219,3.0253,3.0196,3.0421,3.0443,3.0462,3.0534,3.0562,3.0228,3.0227,3.0226,3.0226,0,2.9465,2.9562,2.9648,2.9737,2.9798,2.9909,2.9924,2.9986,2.9977,2.9996,3.0136,3.0187,3.0283,3.0322,3.0314,3.049,3.0464,3.042,3.0338,3.0497,3.0565,3.0592,3.0237,3.0235,3.0233,3.0231,0,0,2.9704,2.979,2.9822,2.9862,2.9935,3.0011,3.0123,3.0214,3.0269,3.0335,3.043,3.0562,3.0522,3.0575,3.0573,3.0653,3.0815,3.06,3.0601,3.0639,3.1014,3.1047,3.1078,3.0797,3.0802,3.0806,3.1009,0,2.9895,3.0087,3.0087,3.0266,3.0357,3.0322,3.0419,3.0476,3.0498,3.058,3.0605,3.0699,3.0639,3.0671,3.0749,3.0779,3.0891,3.0764,3.0887,3.0891,3.0871,3.1113,3.1148,3.1336,3.1035,3.1039,3.1042,0,3.0142,3.0215,3.0403,3.0464,3.0502,3.0589,3.0674,3.0752,3.0817,3.0828,3.0888,3.0874,3.099,3.0905,3.1066,3.098,3.103,3.1053,3.1061,3.1072,3.0977,3.1132,3.1396,3.1425,3.1084,3.108,3.1077,0,3.0299,3.0445,3.0576,3.0612,3.0686,3.0748,3.0783,3.0842,3.0898,3.0973,3.101,3.1099,3.1148,3.1218,3.1229,3.1166,3.1392,3.1307,3.1406,3.1406,3.1455,3.1451,3.1731,3.1487,3.1486,3.1486,3.1485,0,3.0512,3.0628,3.0647,3.0728,3.0858,3.0858,3.0988,3.1017,3.1071,3.1159,3.1135,3.1218,3.1228,3.1315,3.1325,3.1458,3.148,3.1493,3.1495,3.1496,3.1494,3.1529,3.1516,3.1493,3.1492,3.149,3.1489,0,3.0709,3.0725,3.0866,3.0925,3.0943,3.1037,3.1088,3.1167,3.1187,3.1298,3.1325,3.1357,3.1458,3.1476,3.1596,3.1603,3.1762,3.175,3.174,3.1738,3.1836,3.1827,3.2148,3.2191,3.1918,3.1921,3.1923,0,3.0843,3.0932,3.1001,3.1057,3.1094,3.1185,3.1242,3.1247,3.1307,3.1389,3.1458,3.1556,3.1635,3.1799,3.1835,3.1927,3.1917,3.2024,3.1931,3.193,3.192,3.1915,3.1925,3.2041,3.2044,3.2047,3.2049,0,3.1082,3.1086,3.1167,3.1253,3.1321,3.139,3.1454,3.1502,3.1516,3.1586,3.1688,3.1749,3.1871,3.197,3.2062,3.21,3.2079,3.2078,3.2105,3.2108,3.2098,3.2106,3.1789,3.207,3.2068,3.2066,3.2065,3.2064,3.1252,3.133,3.139,3.1483,3.1532,3.1593,3.167,3.17,3.1784,3.1883,3.1882,3.1994,3.2059,3.218,3.2224,3.2314,3.2281,3.2321,3.2331,3.2341,3.2351,3.2084,3.2331,3.2331,3.233,3.233,3.2329,0,3.1489,3.1527,3.1612,3.1703,3.1776,3.1747,3.1818,3.1882,3.1981,3.2043,3.2121,3.224,3.2336,3.238,3.2475,3.2539,3.2531,3.2564,3.256,3.2569,3.2375,3.2341,3.2568,3.2568,3.2568,3.2568,3.2568,3.2568,3.1621,3.1752,3.1764,3.1919,3.1957,3.2065,3.2109,3.2166,3.2215,3.2348,3.2428,3.2455,3.251,3.261,3.2698,3.2708,3.2745,3.2783,3.2789,3.2607,3.2582,3.2559,3.2528,3.2791,3.2791,3.2976,3.2977,3.2979]},{"header":{"parameterUnit":"m.s-1","parameterCategory":1,"la1":30.2991,"la2":30.254,"lo1":-89.0895,"lo2":-89.0444,"dy":0.0017,"dx":0.0017,"nx":28,"ny":28,"refTime":"2025-06-05T09:00:00:Z","depth":0,"parameterNumber":3,"parameterNumberName":"V-component_of_WINDS"},"data":[0,0,0,0,0,0,0,0,0,0,0,0,0,0,0,0,0,0,0,0,0,0,0,0,0,0,0,0,0,0,0,0,0,0,0,0,0,0,0,0,0,0,0,0,0,0,0,0,0,0,0,0,0,0,0,0,0,0,4.223,4.2233,0,4.252,4.2523,4.2526,4.2549,4.2546,4.2543,4.254,4.2839,4.2849,4.286,0,0,0,0,0,0,0,0,0,0,0,0,0,4.1697,4.1707,4.2229,4.2233,4.2237,4.2519,4.2523,4.2527,4.255,4.2546,4.2542,4.2538,4.2835,4.2848,4.2861,0,0,0,0,0,0,0,0,0,0,0,0,0,4.1952,4.171,4.2229,4.2282,4.229,4.2519,4.2523,4.2528,4.255,4.2546,4.2541,4.2536,4.2831,4.2847,4.2863,4.3059,0,0,4.2913,4.292,0,0,0,0,0,0,0,0,4.1938,4.1972,4.2271,4.2279,4.2288,4.2493,4.2445,4.2706,4.2552,4.2451,4.254,4.2534,4.2728,4.2752,4.2817,4.3073,4.3086,4.2914,4.2924,4.2931,4.2936,0,0,0,0,0,0,0,4.192,4.1959,4.2344,4.2275,4.2285,4.2292,4.2323,4.2495,4.2613,4.246,4.2462,4.2496,4.2731,4.2801,4.2824,4.309,4.2914,4.2928,4.2938,4.2945,4.3524,4.353,0,0,0,0,0,0,4.1892,4.1944,4.2335,4.2353,4.2097,4.2305,4.234,4.2432,4.2611,4.2634,4.25,4.2496,4.2776,4.2805,4.2835,4.3079,4.2931,4.2946,4.2956,4.3519,4.3525,4.3531,0,0,0,0,0,0,4.188,4.1926,4.2324,4.215,4.2201,4.232,4.2423,4.244,4.251,4.2641,4.2662,4.2549,4.2773,4.2812,4.3004,4.3089,4.2954,4.2969,4.3512,4.3521,4.3528,4.3566,0,0,0,0,0,0,4.1865,4.1922,4.1997,4.2151,4.221,4.2487,4.2428,4.245,4.2538,4.2536,4.2693,4.2715,4.2772,4.2979,4.302,4.3109,4.2981,4.3505,4.3516,4.3526,4.3558,4.3575,4.3589,0,0,0,0,0,4.1846,4.1996,4.2001,4.2048,4.2306,4.2492,4.2525,4.2588,4.2545,4.2622,4.2707,4.271,4.3073,4.2998,4.3045,4.314,4.35,4.3513,4.3525,4.3551,4.3571,4.3589,0,0,0,0,0,0,4.185,4.2018,4.2025,4.2229,4.2346,4.2495,4.2595,4.2607,4.2739,4.2732,4.2804,4.284,4.3029,4.3104,4.3018,4.3341,4.3282,4.3304,4.3286,4.3306,4.3322,4.3301,4.2995,0,0,0,0,0,4.1875,4.2011,4.215,4.2317,4.2375,4.2475,4.2558,4.2596,4.272,4.277,4.2868,4.2989,4.313,4.3222,4.3359,4.3568,4.3604,4.3656,4.3672,4.3684,4.3703,4.3821,4.3847,4.3573,4.3573,4.3572,0,0,4.1928,4.2036,4.2117,4.2321,4.2416,4.2556,4.2516,4.2666,4.2771,4.2793,4.298,4.3056,4.3196,4.3398,4.3491,4.3466,4.3787,4.37,4.3709,4.3722,4.3837,4.3863,4.3886,4.3581,4.358,4.3578,0,0,4.2096,4.219,4.2341,4.2437,4.2581,4.2647,4.2682,4.283,4.2882,4.3071,4.3091,4.3217,4.3458,4.3558,4.364,4.3846,4.3855,4.3889,4.3971,4.4085,4.4107,4.4127,4.4202,4.4228,4.3907,4.3907,4.3907,0,4.2143,4.2355,4.2417,4.2567,4.2657,4.2682,4.2836,4.2926,4.3108,4.317,4.3138,4.3443,4.3538,4.3764,4.3815,4.388,4.3924,4.3872,4.4099,4.4119,4.4138,4.4211,4.4239,4.391,4.391,4.3909,4.3909,0,4.2407,4.2554,4.2658,4.2833,4.2934,4.3085,4.3172,4.3267,4.3296,4.3364,4.3558,4.3673,4.3835,4.3891,4.3921,4.4122,4.4102,4.4083,4.4026,4.4167,4.4237,4.4265,4.3915,4.3914,4.3913,4.3912,0,0,4.2588,4.2795,4.2833,4.2913,4.3074,4.3189,4.3342,4.35,4.3581,4.3705,4.3836,4.404,4.4025,4.4118,4.4159,4.4259,4.4417,4.4228,4.4233,4.4261,4.4649,4.4663,4.4694,4.4423,4.4428,4.4433,4.4638,0,4.2776,4.3048,4.3108,4.3343,4.348,4.3506,4.364,4.3753,4.3822,4.3949,4.4024,4.4169,4.4136,4.4192,4.4292,4.4377,4.4496,4.4362,4.4547,4.4553,4.4514,4.4731,4.4747,4.4934,4.4665,4.467,4.4673,0,4.3032,4.3162,4.3411,4.3555,4.3615,4.3733,4.3884,4.4004,4.4134,4.4177,4.4281,4.4312,4.4473,4.4406,4.463,4.4538,4.4616,4.4669,4.4678,4.47,4.4623,4.476,4.4995,4.5024,4.4716,4.4713,4.471,0,4.3141,4.3379,4.3559,4.3626,4.3799,4.3882,4.3957,4.4083,4.4174,4.4306,4.4366,4.4514,4.4596,4.471,4.4781,4.4725,4.5,4.4938,4.5042,4.504,4.51,4.5096,4.5354,4.5147,4.5147,4.5146,4.5145,0,4.3346,4.3497,4.361,4.3721,4.3892,4.396,4.4128,4.4204,4.4315,4.4442,4.4473,4.4591,4.4676,4.4807,4.4863,4.5041,4.5077,4.5117,4.5131,4.5116,4.5111,4.517,4.516,4.5154,4.5152,4.515,4.5149,0,4.3498,4.3579,4.3778,4.3924,4.3965,4.4085,4.4211,4.432,4.4388,4.4549,4.459,4.4699,4.4854,4.4935,4.5129,4.5167,4.5368,4.5372,4.5324,4.533,4.543,4.542,4.5737,4.5782,4.5543,4.5545,4.5547,0,4.3624,4.3742,4.3901,4.3988,4.4066,4.4205,4.4299,4.4371,4.4467,4.4624,4.4715,4.4872,4.5002,4.5249,4.5346,4.5495,4.5505,4.5605,4.5527,4.5509,4.5509,4.5502,4.5515,4.562,4.5622,4.5624,4.5625,0,4.3841,4.3876,4.4009,4.4158,4.4269,4.4389,4.4508,4.4578,4.4669,4.4776,4.4935,4.5036,4.5234,4.539,4.5547,4.5625,4.5642,4.5648,4.5681,4.5668,4.5636,4.5657,4.5364,4.5642,4.564,4.5639,4.5638,4.5637,4.3987,4.4093,4.4222,4.437,4.4467,4.4578,4.4688,4.477,4.4904,4.5072,4.5105,4.5275,4.5402,4.5614,4.5697,4.5831,4.5811,4.5857,4.5869,4.588,4.5886,4.5613,4.586,4.5859,4.5859,4.5859,4.5858,0,4.4207,4.4291,4.4427,4.4593,4.471,4.4713,4.4845,4.4943,4.5092,4.5209,4.5336,4.552,4.5672,4.578,4.5934,4.6021,4.6033,4.6059,4.6055,4.6073,4.5894,4.5852,4.6048,4.6048,4.6048,4.6048,4.6048,4.6047,4.4336,4.4517,4.4566,4.4796,4.4879,4.5045,4.5121,4.5223,4.5318,4.5521,4.5648,4.5717,4.5832,4.5995,4.6134,4.6162,4.6219,4.6246,4.6275,4.6106,4.6086,4.6067,4.6028,4.6257,4.6257,4.6444,4.6445,4.6446]}]]